Location: R�o Medio
(42.4667°N, 3.0167°W)
Time: 14:53:17
(UTC+00:00)

STARLINK-43 - Pass Details

Date: 27 February 2020
Orbit: 473 x 474 km, 53.0° (Epoch: 28 March)

Event Time Altitude Azimuth Distance (km) Brightness Sun altitude
Rises 18:36:25 0° 309° (NW) 2,527 7.8 -7.7°
Reaches altitude 10° 18:38:45 10° 320° (NW) 1,648 6.6 -8.2°
Maximum altitude 18:42:07 32° 25° (NNE) 840 4.3 -8.8°
Enters shadow 18:44:59 13° 86° (E) 1,469 5.1 -9.3°
